| time (UTC) | temp F | wind direction | speed MPH | gust MPH | rain 1hr in | rain 24hr in | rain mn in | humidity % | barometer mb |
| 20260510033421 | 68 | 260 | 2.0 | 3.0 | 0.00 | 0.00 | 0.00 | 61 | 1016.6 |
| 20260510032918 | 68 | 136 | 4.0 | 5.0 | 0.00 | 0.00 | 0.00 | 61 | 1016.2 |
| 20260510032415 | 68 | 179 | 3.0 | 6.0 | 0.00 | 0.00 | 0.00 | 60 | 1016.6 |
| 20260510031910 | 68 | 119 | 3.0 | 5.0 | 0.00 | 0.00 | 0.00 | 60 | 1016.5 |
| 20260510031407 | 69 | 190 | 0.0 | 1.0 | 0.00 | 0.00 | 0.00 | 60 | 1016.5 |
| 20260510030906 | 69 | 170 | 4.0 | 6.0 | 0.00 | 0.00 | 0.00 | 60 | 1016.2 |
| 20260510030403 | 69 | 234 | 1.0 | 2.0 | 0.00 | 0.00 | 0.00 | 60 | 1016.2 |
| 20260510025901 | 69 | 237 | 1.0 | 1.0 | 0.00 | 0.00 | 0.00 | 60 | 1016.3 |
| 20260510025358 | 69 | 181 | 2.0 | 3.0 | 0.00 | 0.00 | 0.00 | 60 | 1016.2 |
| 20260510024855 | 69 | 175 | 3.0 | 5.0 | 0.00 | 0.00 | 0.00 | 60 | 1016.2 |
| 20260510024352 | 69 | 219 | 1.0 | 1.0 | 0.00 | 0.00 | 0.00 | 60 | 1016.0 |
| 20260510023847 | 69 | 175 | 2.0 | 2.0 | 0.00 | 0.00 | 0.00 | 60 | 1016.2 |
| 20260510023344 | 69 | 238 | 2.0 | 2.0 | 0.00 | 0.00 | 0.00 | 59 | 1016.1 |
| 20260510022842 | 69 | 240 | 3.0 | 5.0 | 0.00 | 0.00 | 0.00 | 58 | 1015.7 |
| 20260510022341 | 69 | 177 | 3.0 | 3.0 | 0.00 | 0.00 | 0.00 | 57 | 1015.5 |
| 20260510021840 | 69 | 248 | 1.0 | 2.0 | 0.00 | 0.00 | 0.00 | 55 | 1015.7 |
| 20260510021338 | 69 | 267 | 0.0 | 0.0 | 0.00 | 0.00 | 0.00 | 48 | 1015.4 |
| 20260510020835 | 69 | 251 | 1.0 | 1.0 | 0.00 | 0.00 | 0.00 | 47 | 1015.4 |
| 20260510020334 | 69 | 230 | 1.0 | 1.0 | 0.00 | 0.00 | 0.00 | 47 | 1015.4 |
| 20260510015830 | 69 | 236 | 0.0 | 1.0 | 0.00 | 0.00 | 0.00 | 46 | 1015.1 |
| 20260510015326 | 70 | 216 | 0.0 | 1.0 | 0.00 | 0.00 | 0.00 | 46 | 1015.3 |
| 20260510014822 | 70 | 209 | 0.0 | 0.0 | 0.00 | 0.00 | 0.00 | 46 | 1015.1 |
| 20260510014319 | 70 | 127 | 3.0 | 3.0 | 0.00 | 0.00 | 0.00 | 46 | 1015.1 |
| 20260510013815 | 70 | 232 | 2.0 | 2.0 | 0.00 | 0.00 | 0.00 | 46 | 1014.9 |
| 20260510013311 | 69 | 339 | 1.0 | 1.0 | 0.00 | 0.00 | 0.00 | 47 | 1014.8 |
| 20260510012806 | 69 | 234 | 1.0 | 1.0 | 0.00 | 0.00 | 0.00 | 47 | 1014.9 |
| 20260510012301 | 70 | 207 | 0.0 | 1.0 | 0.00 | 0.00 | 0.00 | 46 | 1014.7 |
| 20260510011800 | 70 | 242 | 1.0 | 1.0 | 0.00 | 0.00 | 0.00 | 46 | 1014.8 |
| 20260510011256 | 70 | 239 | 2.0 | 2.0 | 0.00 | 0.00 | 0.00 | 45 | 1014.7 |
| 20260510010753 | 71 | 74 | 3.0 | 3.0 | 0.00 | 0.00 | 0.00 | 44 | 1014.9 |
| 20260510010250 | 71 | 126 | 3.0 | 5.0 | 0.00 | 0.00 | 0.00 | 43 | 1014.8 |
| 20260510005747 | 72 | 149 | 5.0 | 6.0 | 0.00 | 0.00 | 0.00 | 41 | 1014.7 |
| 20260510005243 | 71 | 73 | 3.0 | 6.0 | 0.00 | 0.00 | 0.00 | 41 | 1014.8 |
| 20260510004741 | 71 | 108 | 1.0 | 2.0 | 0.00 | 0.00 | 0.00 | 40 | 1014.6 |
| 20260510004238 | 71 | 331 | 1.0 | 1.0 | 0.00 | 0.00 | 0.00 | 40 | 1014.7 |
| 20260510003736 | 72 | 275 | 0.0 | 1.0 | 0.00 | 0.00 | 0.00 | 38 | 1014.5 |
| 20260510003232 | 72 | 306 | 1.0 | 2.0 | 0.00 | 0.00 | 0.00 | 38 | 1014.3 |
| 20260510002730 | 72 | 40 | 3.0 | 3.0 | 0.00 | 0.00 | 0.00 | 38 | 1014.6 |
| 20260510002228 | 72 | 247 | 0.0 | 1.0 | 0.00 | 0.00 | 0.00 | 39 | 1014.5 |
| 20260510001725 | 72 | 90 | 2.0 | 2.0 | 0.00 | 0.00 | 0.00 | 39 | 1014.4 |
| 20260510001224 | 72 | 313 | 1.0 | 1.0 | 0.00 | 0.00 | 0.00 | 40 | 1014.4 |
| 20260510000719 | 73 | 27 | 2.0 | 2.0 | 0.00 | 0.00 | 0.00 | 39 | 1014.6 |
| 20260510000218 | 73 | 291 | 1.0 | 1.0 | 0.00 | 0.00 | 0.00 | 39 | 1014.6 |
| 20260509235714 | 73 | 269 | 1.0 | 1.0 | 0.00 | 0.00 | 0.00 | 38 | 1014.7 |
| 20260509235210 | 73 | 265 | 0.0 | 1.0 | 0.00 | 0.00 | 0.00 | 38 | 1014.3 |
| 20260509234706 | 73 | 232 | 1.0 | 1.0 | 0.00 | 0.00 | 0.00 | 38 | 1014.5 |
| 20260509234203 | 73 | 268 | 0.0 | 0.0 | 0.00 | 0.00 | 0.00 | 38 | 1014.3 |
| 20260509233701 | 73 | 277 | 0.0 | 0.0 | 0.00 | 0.00 | 0.00 | 38 | 1014.3 |
| 20260509233159 | 73 | 254 | 1.0 | 1.0 | 0.00 | 0.00 | 0.00 | 37 | 1014.6 |
| 20260509232654 | 73 | 194 | 0.0 | 2.0 | 0.00 | 0.00 | 0.00 | 39 | 1014.6 |
| 20260509232151 | 73 | 271 | 0.0 | 1.0 | 0.00 | 0.00 | 0.00 | 39 | 1014.0 |
| 20260509231648 | 73 | 258 | 0.0 | 0.0 | 0.00 | 0.00 | 0.00 | 39 | 1014.7 |
| 20260509231145 | 74 | 214 | 1.0 | 2.0 | 0.00 | 0.00 | 0.00 | 40 | 1014.6 |
| 20260509230642 | 74 | 170 | 2.0 | 2.0 | 0.00 | 0.00 | 0.00 | 39 | 1014.5 |
| 20260509230139 | 74 | 134 | 1.0 | 3.0 | 0.00 | 0.00 | 0.00 | 38 | 1014.4 |
| 20260509225635 | 74 | 249 | 0.0 | 0.0 | 0.00 | 0.00 | 0.00 | 38 | 1014.5 |
| 20260509225131 | 74 | 258 | 0.0 | 0.0 | 0.00 | 0.00 | 0.00 | 38 | 1014.5 |
| 20260509224626 | 74 | 193 | 1.0 | 1.0 | 0.00 | 0.00 | 0.00 | 38 | 1014.5 |
| 20260509224123 | 74 | 47 | 2.0 | 2.0 | 0.00 | 0.00 | 0.00 | 37 | 1014.3 |
| 20260509223620 | 74 | 302 | 1.0 | 2.0 | 0.00 | 0.00 | 0.00 | 39 | 1014.4 |
| 20260509223118 | 74 | 300 | 1.0 | 1.0 | 0.00 | 0.00 | 0.00 | 38 | 1014.3 |
| 20260509222614 | 74 | 239 | 1.0 | 1.0 | 0.00 | 0.00 | 0.00 | 39 | 1014.4 |
| 20260509222110 | 74 | 329 | 1.0 | 1.0 | 0.00 | 0.00 | 0.00 | 37 | 1014.4 |
| 20260509221606 | 75 | 222 | 1.0 | 1.0 | 0.00 | 0.00 | 0.00 | 40 | 1014.1 |
| 20260509221102 | 75 | 271 | 0.0 | 0.0 | 0.00 | 0.00 | 0.00 | 38 | 1014.0 |
| 20260509220558 | 75 | 249 | 0.0 | 0.0 | 0.00 | 0.00 | 0.00 | 38 | 1014.3 |
| 20260509220054 | 75 | 108 | 2.0 | 2.0 | 0.00 | 0.00 | 0.00 | 36 | 1014.4 |
| 20260509215549 | 75 | 89 | 1.0 | 1.0 | 0.00 | 0.00 | 0.00 | 37 | 1014.1 |
| 20260509215047 | 75 | 199 | 3.0 | 3.0 | 0.00 | 0.00 | 0.00 | 36 | 1014.3 |
| 20260509214544 | 75 | 215 | 2.0 | 2.0 | 0.00 | 0.00 | 0.00 | 36 | 1014.3 |
| 20260509214041 | 75 | 223 | 2.0 | 2.0 | 0.00 | 0.00 | 0.00 | 37 | 1014.3 |
| 20260509213537 | 75 | 252 | 2.0 | 2.0 | 0.00 | 0.00 | 0.00 | 35 | 1014.6 |
| 20260509213034 | 76 | 184 | 2.0 | 3.0 | 0.00 | 0.00 | 0.00 | 37 | 1014.4 |
| 20260509212531 | 76 | 233 | 2.0 | 2.0 | 0.00 | 0.00 | 0.00 | 37 | 1014.5 |
| 20260509212028 | 77 | 191 | 1.0 | 1.0 | 0.00 | 0.00 | 0.00 | 38 | 1014.4 |
| 20260509211524 | 76 | 272 | 1.0 | 1.0 | 0.00 | 0.00 | 0.00 | 36 | 1014.4 |
| 20260509211021 | 76 | 273 | 1.0 | 1.0 | 0.00 | 0.00 | 0.00 | 37 | 1014.5 |
| 20260509210518 | 75 | 283 | 0.0 | 0.0 | 0.00 | 0.00 | 0.00 | 36 | 1014.7 |
| 20260509210014 | 75 | 204 | 2.0 | 2.0 | 0.00 | 0.00 | 0.00 | 36 | 1014.6 |
| 20260509205508 | 76 | 271 | 0.0 | 0.0 | 0.00 | 0.00 | 0.00 | 38 | 1014.7 |
| 20260509205004 | 77 | 286 | 0.0 | 1.0 | 0.00 | 0.00 | 0.00 | 37 | 1014.7 |
| 20260509204500 | 75 | 231 | 2.0 | 2.0 | 0.00 | 0.00 | 0.00 | 39 | 1014.8 |
| 20260509203957 | 76 | 231 | 3.0 | 3.0 | 0.00 | 0.00 | 0.00 | 36 | 1014.7 |
| 20260509203452 | 76 | 244 | 2.0 | 2.0 | 0.00 | 0.00 | 0.00 | 37 | 1014.9 |
| 20260509202950 | 76 | 171 | 3.0 | 3.0 | 0.00 | 0.00 | 0.00 | 40 | 1015.1 |
| 20260509202446 | 77 | 216 | 5.0 | 6.0 | 0.00 | 0.00 | 0.00 | 38 | 1014.7 |
| 20260509201941 | 76 | 344 | 1.0 | 2.0 | 0.00 | 0.00 | 0.00 | 39 | 1015.0 |
| 20260509201437 | 76 | 278 | 0.0 | 0.0 | 0.00 | 0.00 | 0.00 | 36 | 1014.8 |
| 20260509200934 | 76 | 137 | 2.0 | 3.0 | 0.00 | 0.00 | 0.00 | 39 | 1014.9 |
| 20260509200434 | 77 | 279 | 0.0 | 0.0 | 0.00 | 0.00 | 0.00 | 35 | 1014.7 |
| 20260509195931 | 77 | 279 | 1.0 | 1.0 | 0.00 | 0.00 | 0.00 | 35 | 1015.0 |
| 20260509195427 | 75 | 269 | 0.0 | 1.0 | 0.00 | 0.00 | 0.00 | 34 | 1015.0 |
| 20260509194926 | 75 | 274 | 1.0 | 2.0 | 0.00 | 0.00 | 0.00 | 36 | 1015.2 |
| 20260509194422 | 76 | 345 | 4.0 | 5.0 | 0.00 | 0.00 | 0.00 | 36 | 1015.1 |
| 20260509193920 | 76 | 163 | 4.0 | 5.0 | 0.00 | 0.00 | 0.00 | 38 | 1015.3 |
| 20260509193419 | 75 | 98 | 4.0 | 6.0 | 0.00 | 0.00 | 0.00 | 38 | 1015.4 |
| 20260509192915 | 75 | 243 | 3.0 | 3.0 | 0.00 | 0.00 | 0.00 | 37 | 1015.3 |
| 20260509192411 | 77 | 208 | 4.0 | 5.0 | 0.00 | 0.00 | 0.00 | 36 | 1015.3 |
| 20260509191907 | 78 | 201 | 2.0 | 3.0 | 0.00 | 0.00 | 0.00 | 36 | 1015.4 |
| 20260509191402 | 80 | 255 | 1.0 | 1.0 | 0.00 | 0.00 | 0.00 | 37 | 1015.4 |
| 20260509190859 | 79 | 280 | 0.0 | 0.0 | 0.00 | 0.00 | 0.00 | 37 | 1015.3 |
| 20260509190356 | 81 | 280 | 1.0 | 1.0 | 0.00 | 0.00 | 0.00 | 35 | 1015.3 |
| 20260509185853 | 79 | 272 | 0.0 | 0.0 | 0.00 | 0.00 | 0.00 | 35 | 1015.6 |
| 20260509185350 | 77 | 281 | 1.0 | 1.0 | 0.00 | 0.00 | 0.00 | 34 | 1015.4 |
| 20260509184847 | 78 | 121 | 4.0 | 7.0 | 0.00 | 0.00 | 0.00 | 34 | 1015.4 |
| 20260509184344 | 79 | 276 | 1.0 | 1.0 | 0.00 | 0.00 | 0.00 | 34 | 1015.3 |
| 20260509183841 | 79 | 280 | 1.0 | 1.0 | 0.00 | 0.00 | 0.00 | 32 | 1015.4 |
| 20260509183336 | 76 | 351 | 0.0 | 0.0 | 0.00 | 0.00 | 0.00 | 38 | 1015.5 |
| 20260509182832 | 75 | 283 | 0.0 | 0.0 | 0.00 | 0.00 | 0.00 | 39 | 1015.6 |
| 20260509182329 | 77 | 80 | 3.0 | 3.0 | 0.00 | 0.00 | 0.00 | 34 | 1015.6 |
| 20260509181827 | 75 | 105 | 2.0 | 3.0 | 0.00 | 0.00 | 0.00 | 36 | 1015.5 |
| 20260509181324 | 74 | 270 | 1.0 | 1.0 | 0.00 | 0.00 | 0.00 | 36 | 1015.4 |
| 20260509180821 | 74 | 208 | 3.0 | 5.0 | 0.00 | 0.00 | 0.00 | 36 | 1015.5 |
| 20260509180317 | 75 | 93 | 3.0 | 6.0 | 0.00 | 0.00 | 0.00 | 37 | 1015.6 |
| 20260509175813 | 76 | 92 | 3.0 | 6.0 | 0.00 | 0.00 | 0.00 | 33 | 1015.5 |
| 20260509175310 | 77 | 277 | 0.0 | 1.0 | 0.00 | 0.00 | 0.00 | 34 | 1015.6 |
| 20260509174806 | 77 | 299 | 2.0 | 2.0 | 0.00 | 0.00 | 0.00 | 37 | 1015.1 |
| 20260509174302 | 78 | 88 | 2.0 | 2.0 | 0.00 | 0.00 | 0.00 | 34 | 1015.4 |
| 20260509173758 | 77 | 284 | 2.0 | 2.0 | 0.00 | 0.00 | 0.00 | 38 | 1015.4 |
| 20260509173253 | 75 | 294 | 2.0 | 2.0 | 0.00 | 0.00 | 0.00 | 38 | 1015.6 |
| 20260509172749 | 78 | 294 | 0.0 | 0.0 | 0.00 | 0.00 | 0.00 | 40 | 1015.6 |
| 20260509172247 | 77 | 300 | 2.0 | 2.0 | 0.00 | 0.00 | 0.00 | 39 | 1015.9 |
| 20260509171742 | 77 | 187 | 0.0 | 1.0 | 0.00 | 0.00 | 0.00 | 41 | 1015.5 |
| 20260509171238 | 77 | 326 | 2.0 | 2.0 | 0.00 | 0.00 | 0.00 | 39 | 1015.5 |
| 20260509170735 | 74 | 114 | 2.0 | 3.0 | 0.00 | 0.00 | 0.00 | 35 | 1015.7 |
| 20260509170231 | 75 | 138 | 3.0 | 3.0 | 0.00 | 0.00 | 0.00 | 37 | 1015.7 |
| 20260509165730 | 75 | 149 | 0.0 | 0.0 | 0.00 | 0.00 | 0.00 | 43 | 1015.7 |
| 20260509165225 | 76 | 333 | 1.0 | 2.0 | 0.00 | 0.00 | 0.00 | 41 | 1015.6 |
| 20260509164721 | 76 | 277 | 1.0 | 1.0 | 0.00 | 0.00 | 0.00 | 38 | 1015.7 |
| 20260509164217 | 79 | 339 | 0.0 | 1.0 | 0.00 | 0.00 | 0.00 | 39 | 1015.6 |
| 20260509163715 | 77 | 290 | 1.0 | 2.0 | 0.00 | 0.00 | 0.00 | 44 | 1015.5 |
| 20260509163211 | 77 | 66 | 1.0 | 3.0 | 0.00 | 0.00 | 0.00 | 39 | 1015.6 |
| 20260509162709 | 78 | 228 | 0.0 | 1.0 | 0.00 | 0.00 | 0.00 | 42 | 1015.7 |
| 20260509162204 | 76 | 279 | 1.0 | 1.0 | 0.00 | 0.00 | 0.00 | 42 | 1015.6 |
| 20260509161700 | 77 | 278 | 0.0 | 0.0 | 0.00 | 0.00 | 0.00 | 44 | 1015.5 |
| 20260509161155 | 77 | 284 | 1.0 | 1.0 | 0.00 | 0.00 | 0.00 | 39 | 1015.6 |
| 20260509160651 | 77 | 293 | 1.0 | 1.0 | 0.00 | 0.00 | 0.00 | 40 | 1015.9 |
| 20260509160147 | 76 | 278 | 1.0 | 1.0 | 0.00 | 0.00 | 0.00 | 39 | 1015.6 |
| 20260509155643 | 77 | 280 | 1.0 | 1.0 | 0.00 | 0.00 | 0.00 | 39 | 1015.5 |
| 20260509155140 | 76 | 288 | 0.0 | 2.0 | 0.00 | 0.00 | 0.00 | 46 | 1015.5 |
| 20260509154635 | 75 | 283 | 0.0 | 1.0 | 0.00 | 0.00 | 0.00 | 48 | 1015.4 |
| 20260509154133 | 76 | 289 | 1.0 | 1.0 | 0.00 | 0.00 | 0.00 | 49 | 1015.5 |
| 20260509153630 | 75 | 278 | 0.0 | 0.0 | 0.00 | 0.00 | 0.00 | 48 | 1015.6 |
| 20260509153126 | 75 | 278 | 0.0 | 1.0 | 0.00 | 0.00 | 0.00 | 51 | 1015.5 |
| 20260509152622 | 75 | 240 | 0.0 | 1.0 | 0.00 | 0.00 | 0.00 | 55 | 1015.5 |
| 20260509152120 | 75 | 275 | 0.0 | 0.0 | 0.00 | 0.00 | 0.00 | 55 | 1015.4 |
| 20260509151616 | 73 | 272 | 0.0 | 0.0 | 0.00 | 0.00 | 0.00 | 61 | 1015.4 |
| 20260509151114 | 72 | 281 | 1.0 | 2.0 | 0.00 | 0.00 | 0.00 | 64 | 1015.4 |
| 20260509150611 | 73 | 277 | 0.0 | 1.0 | 0.00 | 0.00 | 0.00 | 64 | 1015.5 |
| 20260509150110 | 73 | 287 | 0.0 | 1.0 | 0.00 | 0.00 | 0.00 | 65 | 1015.4 |
| 20260509145605 | 71 | 280 | 0.0 | 0.0 | 0.00 | 0.00 | 0.00 | 68 | 1015.4 |
| 20260509145100 | 71 | 274 | 0.0 | 0.0 | 0.00 | 0.00 | 0.00 | 69 | 1015.3 |
| 20260509144558 | 70 | 283 | 1.0 | 1.0 | 0.00 | 0.00 | 0.00 | 71 | 1015.2 |
| 20260509144055 | 70 | 285 | 0.0 | 0.0 | 0.00 | 0.00 | 0.00 | 72 | 1015.4 |
| 20260509143551 | 70 | 284 | 1.0 | 1.0 | 0.00 | 0.00 | 0.00 | 72 | 1015.3 |
| 20260509143049 | 69 | 279 | 0.0 | 0.0 | 0.00 | 0.00 | 0.00 | 73 | 1015.3 |
| 20260509142544 | 69 | 277 | 1.0 | 1.0 | 0.00 | 0.00 | 0.00 | 74 | 1015.2 |
| 20260509142041 | 69 | 277 | 1.0 | 1.0 | 0.00 | 0.00 | 0.00 | 74 | 1015.4 |
| 20260509141537 | 69 | 270 | 0.0 | 0.0 | 0.00 | 0.00 | 0.00 | 74 | 1015.3 |
| 20260509141034 | 68 | 279 | 1.0 | 1.0 | 0.00 | 0.00 | 0.00 | 76 | 1015.1 |
| 20260509140531 | 67 | 279 | 0.0 | 0.0 | 0.00 | 0.00 | 0.00 | 77 | 1015.2 |
| 20260509140029 | 67 | 281 | 0.0 | 1.0 | 0.00 | 0.00 | 0.00 | 77 | 1015.0 |
| 20260509135525 | 66 | 286 | 1.0 | 2.0 | 0.00 | 0.00 | 0.00 | 77 | 1014.8 |
| 20260509135023 | 65 | 277 | 0.0 | 0.0 | 0.00 | 0.00 | 0.00 | 81 | 1014.8 |
| 20260509134520 | 64 | 280 | 1.0 | 2.0 | 0.00 | 0.00 | 0.00 | 81 | 1014.8 |
| 20260509134018 | 64 | 279 | 0.0 | 0.0 | 0.00 | 0.00 | 0.00 | 82 | 1014.9 |
| 20260509133514 | 64 | 278 | 1.0 | 1.0 | 0.00 | 0.00 | 0.00 | 82 | 1014.8 |
| 20260509133012 | 64 | 275 | 1.0 | 1.0 | 0.00 | 0.00 | 0.00 | 82 | 1014.8 |
| 20260509132510 | 63 | 281 | 2.0 | 2.0 | 0.00 | 0.00 | 0.00 | 84 | 1014.6 |
| 20260509132008 | 63 | 280 | 1.0 | 1.0 | 0.00 | 0.00 | 0.00 | 84 | 1014.6 |
| 20260509131504 | 62 | 277 | 1.0 | 2.0 | 0.00 | 0.00 | 0.00 | 85 | 1014.3 |
| 20260509131001 | 62 | 277 | 1.0 | 1.0 | 0.00 | 0.00 | 0.00 | 86 | 1014.6 |
| 20260509130456 | 62 | 282 | 2.0 | 2.0 | 0.00 | 0.00 | 0.00 | 86 | 1014.5 |
| 20260509125953 | 61 | 280 | 1.0 | 1.0 | 0.00 | 0.00 | 0.00 | 87 | 1014.5 |
| 20260509125450 | 61 | 275 | 1.0 | 1.0 | 0.00 | 0.00 | 0.00 | 87 | 1014.3 |
| 20260509124946 | 61 | 282 | 1.0 | 2.0 | 0.00 | 0.00 | 0.00 | 88 | 1014.1 |
| 20260509124443 | 61 | 304 | 2.0 | 2.0 | 0.00 | 0.00 | 0.00 | 87 | 1014.4 |
| 20260509123940 | 61 | 285 | 1.0 | 1.0 | 0.00 | 0.00 | 0.00 | 87 | 1014.3 |
| 20260509123438 | 61 | 295 | 1.0 | 2.0 | 0.00 | 0.00 | 0.00 | 87 | 1014.4 |
| 20260509122933 | 60 | 228 | 0.0 | 1.0 | 0.00 | 0.00 | 0.00 | 89 | 1014.4 |
| 20260509122431 | 60 | 288 | 1.0 | 1.0 | 0.00 | 0.00 | 0.00 | 89 | 1014.1 |
| 20260509121927 | 59 | 280 | 1.0 | 1.0 | 0.00 | 0.00 | 0.00 | 90 | 1014.1 |
| 20260509121424 | 59 | 293 | 1.0 | 2.0 | 0.00 | 0.00 | 0.00 | 90 | 1013.9 |
| 20260509120922 | 58 | 301 | 3.0 | 3.0 | 0.00 | 0.00 | 0.00 | 91 | 1013.8 |
| 20260509120420 | 58 | 306 | 2.0 | 2.0 | 0.00 | 0.00 | 0.00 | 92 | 1013.8 |
| 20260509115918 | 58 | 304 | 2.0 | 2.0 | 0.00 | 0.00 | 0.00 | 92 | 1013.5 |
| 20260509115415 | 57 | 290 | 0.0 | 1.0 | 0.00 | 0.00 | 0.00 | 93 | 1013.4 |
| 20260509114912 | 57 | 278 | 1.0 | 1.0 | 0.00 | 0.00 | 0.00 | 93 | 1013.6 |
| 20260509114411 | 57 | 289 | 1.0 | 1.0 | 0.00 | 0.00 | 0.00 | 93 | 1013.5 |
| 20260509113910 | 57 | 277 | 0.0 | 0.0 | 0.00 | 0.00 | 0.00 | 94 | 1013.4 |
| 20260509113407 | 57 | 305 | 1.0 | 2.0 | 0.00 | 0.00 | 0.00 | 95 | 1013.3 |
| 20260509112903 | 56 | 294 | 1.0 | 2.0 | 0.00 | 0.00 | 0.00 | 95 | 1013.4 |
| 20260509112400 | 56 | 279 | 0.0 | 0.0 | 0.00 | 0.00 | 0.00 | 96 | 1013.2 |
| 20260509111858 | 56 | 304 | 1.0 | 1.0 | 0.00 | 0.00 | 0.00 | 96 | 1013.3 |
| 20260509111354 | 56 | 282 | 1.0 | 1.0 | 0.00 | 0.00 | 0.00 | 96 | 1013.3 |
| 20260509110852 | 56 | 292 | 1.0 | 2.0 | 0.00 | 0.00 | 0.00 | 96 | 1013.2 |
| 20260509110348 | 56 | 286 | 0.0 | 1.0 | 0.00 | 0.00 | 0.00 | 96 | 1013.3 |
| 20260509105846 | 56 | 275 | 1.0 | 1.0 | 0.00 | 0.00 | 0.00 | 96 | 1013.3 |
| 20260509105344 | 56 | 285 | 0.0 | 0.0 | 0.00 | 0.00 | 0.00 | 96 | 1013.0 |
| 20260509104841 | 55 | 284 | 0.0 | 0.0 | 0.00 | 0.00 | 0.00 | 97 | 1013.1 |
| 20260509104337 | 55 | 284 | 0.0 | 0.0 | 0.00 | 0.00 | 0.00 | 97 | 1013.2 |
| 20260509103835 | 55 | 270 | 0.0 | 0.0 | 0.00 | 0.00 | 0.00 | 97 | 1013.1 |
| 20260509103332 | 55 | 272 | 0.0 | 0.0 | 0.00 | 0.00 | 0.00 | 96 | 1013.1 |
| 20260509102831 | 56 | 267 | 1.0 | 1.0 | 0.00 | 0.00 | 0.00 | 96 | 1013.4 |
| 20260509102328 | 56 | 265 | 0.0 | 1.0 | 0.00 | 0.00 | 0.00 | 95 | 1013.3 |
| 20260509101823 | 56 | 276 | 0.0 | 0.0 | 0.00 | 0.00 | 0.00 | 95 | 1013.1 |
| 20260509101320 | 56 | 277 | 0.0 | 0.0 | 0.00 | 0.00 | 0.00 | 94 | 1013.0 |
| 20260509100818 | 56 | 279 | 0.0 | 0.0 | 0.00 | 0.00 | 0.00 | 94 | 1012.9 |
| 20260509100315 | 57 | 282 | 1.0 | 1.0 | 0.00 | 0.00 | 0.00 | 94 | 1013.2 |
| 20260509095811 | 57 | 276 | 0.0 | 0.0 | 0.00 | 0.00 | 0.00 | 94 | 1013.1 |
| 20260509095309 | 57 | 284 | 0.0 | 1.0 | 0.00 | 0.00 | 0.00 | 93 | 1013.0 |
| 20260509094806 | 57 | 277 | 0.0 | 1.0 | 0.00 | 0.00 | 0.00 | 94 | 1013.1 |
| 20260509094302 | 56 | 276 | 0.0 | 1.0 | 0.00 | 0.00 | 0.00 | 95 | 1013.1 |
| 20260509093800 | 56 | 276 | 1.0 | 1.0 | 0.00 | 0.00 | 0.00 | 95 | 1013.0 |
| 20260509093257 | 56 | 276 | 1.0 | 1.0 | 0.00 | 0.00 | 0.00 | 94 | 1013.0 |
| 20260509092755 | 56 | 275 | 0.0 | 0.0 | 0.00 | 0.00 | 0.00 | 94 | 1013.2 |
| 20260509092253 | 56 | 277 | 0.0 | 1.0 | 0.00 | 0.00 | 0.00 | 94 | 1013.3 |
| 20260509091751 | 56 | 275 | 0.0 | 0.0 | 0.00 | 0.00 | 0.00 | 94 | 1013.3 |
| 20260509091247 | 56 | 274 | 1.0 | 1.0 | 0.00 | 0.00 | 0.00 | 95 | 1013.4 |
| 20260509090745 | 55 | 275 | 1.0 | 1.0 | 0.00 | 0.00 | 0.00 | 95 | 1013.5 |
| 20260509090242 | 55 | 275 | 1.0 | 1.0 | 0.00 | 0.00 | 0.00 | 95 | 1013.5 |
| 20260509085739 | 55 | 277 | 0.0 | 1.0 | 0.00 | 0.00 | 0.00 | 95 | 1013.6 |
| 20260509085237 | 55 | 275 | 0.0 | 0.0 | 0.00 | 0.00 | 0.00 | 95 | 1013.7 |
| 20260509084733 | 55 | 276 | 1.0 | 1.0 | 0.00 | 0.00 | 0.00 | 96 | 1013.5 |
| 20260509084229 | 55 | 277 | 1.0 | 1.0 | 0.00 | 0.00 | 0.00 | 95 | 1013.8 |
| 20260509083728 | 55 | 273 | 0.0 | 0.0 | 0.00 | 0.00 | 0.00 | 95 | 1013.6 |
| 20260509083224 | 55 | 277 | 0.0 | 0.0 | 0.00 | 0.00 | 0.00 | 95 | 1013.5 |
| 20260509082721 | 55 | 275 | 0.0 | 0.0 | 0.00 | 0.00 | 0.00 | 95 | 1013.9 |
| 20260509082218 | 55 | 273 | 0.0 | 0.0 | 0.00 | 0.00 | 0.00 | 95 | 1013.6 |
| 20260509081714 | 55 | 279 | 0.0 | 0.0 | 0.00 | 0.00 | 0.00 | 95 | 1013.9 |
| 20260509081212 | 56 | 274 | 0.0 | 0.0 | 0.00 | 0.00 | 0.00 | 94 | 1013.8 |
| 20260509080710 | 56 | 279 | 0.0 | 0.0 | 0.00 | 0.00 | 0.00 | 94 | 1013.7 |
| 20260509080207 | 56 | 277 | 0.0 | 1.0 | 0.00 | 0.00 | 0.00 | 94 | 1013.6 |
| 20260509075705 | 56 | 266 | 0.0 | 0.0 | 0.00 | 0.00 | 0.00 | 94 | 1013.9 |
| 20260509075203 | 56 | 210 | 0.0 | 0.0 | 0.00 | 0.00 | 0.00 | 94 | 1013.9 |
| 20260509074659 | 56 | 281 | 0.0 | 0.0 | 0.00 | 0.00 | 0.00 | 94 | 1013.8 |
| 20260509074156 | 56 | 274 | 1.0 | 1.0 | 0.00 | 0.00 | 0.00 | 94 | 1013.6 |
| 20260509073653 | 56 | 277 | 0.0 | 1.0 | 0.00 | 0.00 | 0.00 | 93 | 1013.6 |
| 20260509073149 | 56 | 280 | 0.0 | 0.0 | 0.00 | 0.00 | 0.00 | 93 | 1013.5 |
| 20260509072646 | 56 | 282 | 1.0 | 1.0 | 0.00 | 0.00 | 0.00 | 93 | 1013.6 |
| 20260509072143 | 56 | 276 | 0.0 | 0.0 | 0.00 | 0.00 | 0.00 | 93 | 1013.6 |
| 20260509071639 | 56 | 275 | 0.0 | 0.0 | 0.00 | 0.00 | 0.00 | 92 | 1013.8 |
| 20260509071137 | 56 | 274 | 0.0 | 0.0 | 0.00 | 0.00 | 0.00 | 92 | 1013.9 |
| 20260509070634 | 57 | 274 | 1.0 | 1.0 | 0.00 | 0.00 | 0.00 | 91 | 1013.6 |
| 20260509070130 | 57 | 271 | 0.0 | 0.0 | 0.00 | 0.00 | 0.00 | 91 | 1013.6 |
| 20260509065626 | 57 | 278 | 1.0 | 1.0 | 0.00 | 0.00 | 0.00 | 91 | 1013.5 |
| 20260509065122 | 56 | 278 | 0.0 | 0.0 | 0.00 | 0.00 | 0.00 | 92 | 1013.8 |
| 20260509064620 | 57 | 272 | 0.0 | 0.0 | 0.00 | 0.00 | 0.00 | 92 | 1013.5 |
| 20260509064118 | 57 | 267 | 1.0 | 1.0 | 0.00 | 0.00 | 0.00 | 92 | 1013.9 |
| 20260509063614 | 57 | 263 | 0.0 | 2.0 | 0.00 | 0.00 | 0.00 | 92 | 1013.6 |
| 20260509063110 | 57 | 275 | 0.0 | 1.0 | 0.00 | 0.00 | 0.00 | 91 | 1013.5 |
| 20260509062608 | 57 | 277 | 1.0 | 1.0 | 0.00 | 0.00 | 0.00 | 91 | 1013.6 |
| 20260509062105 | 57 | 278 | 0.0 | 0.0 | 0.00 | 0.00 | 0.00 | 90 | 1013.6 |
| 20260509061601 | 57 | 286 | 0.0 | 0.0 | 0.00 | 0.00 | 0.00 | 90 | 1013.8 |
| 20260509061059 | 58 | 310 | 2.0 | 3.0 | 0.00 | 0.00 | 0.00 | 88 | 1013.7 |
| 20260509060557 | 59 | 280 | 1.0 | 2.0 | 0.00 | 0.00 | 0.00 | 87 | 1014.0 |
| 20260509060052 | 59 | 284 | 0.0 | 1.0 | 0.00 | 0.00 | 0.00 | 86 | 1013.8 |
| 20260509055548 | 59 | 331 | 1.0 | 2.0 | 0.00 | 0.00 | 0.00 | 84 | 1013.6 |
| 20260509055044 | 60 | 283 | 2.0 | 2.0 | 0.00 | 0.00 | 0.00 | 83 | 1013.7 |
| 20260509054541 | 60 | 302 | 2.0 | 3.0 | 0.00 | 0.00 | 0.00 | 81 | 1013.6 |
| 20260509054038 | 60 | 280 | 1.0 | 2.0 | 0.00 | 0.00 | 0.00 | 80 | 1013.8 |
| 20260509053537 | 60 | 273 | 0.0 | 1.0 | 0.00 | 0.00 | 0.00 | 79 | 1013.6 |
| 20260509053033 | 60 | 293 | 2.0 | 2.0 | 0.00 | 0.00 | 0.00 | 79 | 1013.4 |
| 20260509052531 | 60 | 256 | 1.0 | 1.0 | 0.00 | 0.00 | 0.00 | 79 | 1013.7 |
| 20260509052029 | 60 | 274 | 0.0 | 1.0 | 0.00 | 0.00 | 0.00 | 78 | 1013.4 |
| 20260509051527 | 60 | 287 | 1.0 | 1.0 | 0.00 | 0.00 | 0.00 | 78 | 1013.5 |
| 20260509051024 | 59 | 278 | 2.0 | 3.0 | 0.00 | 0.00 | 0.00 | 78 | 1013.4 |
| 20260509050520 | 60 | 266 | 0.0 | 1.0 | 0.00 | 0.00 | 0.00 | 79 | 1013.6 |
| 20260509050017 | 60 | 272 | 1.0 | 2.0 | 0.00 | 0.01 | 0.01 | 78 | 1013.6 |
| 20260509045514 | 60 | 335 | 3.0 | 5.0 | 0.00 | 0.01 | 0.01 | 77 | 1013.5 |
| 20260509045011 | 60 | 296 | 3.0 | 3.0 | 0.00 | 0.01 | 0.01 | 76 | 1013.5 |
| 20260509044509 | 60 | 281 | 2.0 | 2.0 | 0.00 | 0.01 | 0.01 | 75 | 1013.6 |
| 20260509044006 | 60 | 267 | 1.0 | 1.0 | 0.00 | 0.01 | 0.01 | 75 | 1013.7 |
| 20260509043502 | 60 | 277 | 1.0 | 2.0 | 0.00 | 0.01 | 0.01 | 76 | 1013.4 |
| 20260509042957 | 60 | 235 | 4.0 | 7.0 | 0.00 | 0.01 | 0.01 | 75 | 1013.6 |
| 20260509042454 | 60 | 244 | 2.0 | 2.0 | 0.00 | 0.01 | 0.01 | 76 | 1013.3 |
| 20260509041950 | 60 | 247 | 4.0 | 6.0 | 0.00 | 0.01 | 0.01 | 78 | 1013.4 |
| 20260509041447 | 60 | 150 | 3.0 | 5.0 | 0.00 | 0.01 | 0.01 | 79 | 1013.2 |
| 20260509040945 | 60 | 276 | 1.0 | 1.0 | 0.00 | 0.01 | 0.01 | 83 | 1013.2 |
| 20260509040444 | 59 | 242 | 2.0 | 3.0 | 0.00 | 0.01 | 0.01 | 86 | 1013.2 |
| 20260509035940 | 60 | 269 | 2.0 | 3.0 | 0.00 | 0.01 | 0.01 | 87 | 1013.1 |
| 20260509035437 | 60 | 225 | 2.0 | 2.0 | 0.00 | 0.01 | 0.01 | 85 | 1013.4 |
| 20260509034933 | 60 | 239 | 1.0 | 2.0 | 0.00 | 0.01 | 0.01 | 83 | 1013.2 |
| 20260509034431 | 60 | 176 | 3.0 | 5.0 | 0.00 | 0.01 | 0.01 | 83 | 1013.3 |
| 20260509033928 | 60 | 268 | 2.0 | 3.0 | 0.00 | 0.01 | 0.01 | 81 | 1013.2 |